SCP
1 1 1 0 0 0 0 0 0 1 0 1 1 1 1 1 0 0 0 0 0 0 0 0 0 0 0 0 0 1 1 1 0 0 0 0 0 0 0 0 0 0 0
0 1 0 0 0 0 0 0 0 0 0 0 0 1 1 0 0 0 0 0 0 0 0 0 0 0 0 0 0 0 1 1 0 0 0 0 0 0 0 0 0 0 0
0 0 0 0 0 0 0 0 0 0 0 0 0 0 0 0 0 0 0 0 0 0 0 0 0 0 0 0 0 0 1 1 0 0 0 0 0 0 0 0 0 0 0
1 0 0 0 0 0 0 0 0 0 0 0 0 0 0 0 0 0 0 0 0 0 0 0 0 0 0 0 0 0 1 1 0 0 0 0 0 0 0 0 0 0 0
1 1 1 0 0 0 0 0 0 0 0 0 0 0 0 0 0 0 0 0 0 0 0 0 0 0 0 0 0 0 1 1 0 0 0 0 0 0 0 0 0 0 0
1 1 1 1 0 0 0 0 0 0 0 0 0 0 0 0 0 0 0 0 0 0 0 0 0 0 0 0 0 0 0 1 0 0 0 0 0 0 0 0 0 0 0
1 1 1 1 1 0 0 0 0 0 0 0 0 0 0 0 0 0 0 0 0 1 1 1 1 0 0 0 0 0 0 0 0 0 0 0 0 0 0 0 0 0 0
1 1 1 1 1 0 0 0 0 0 0 0 0 0 0 0 0 0 0 0 0 1 1 1 1 0 0 0 0 0 0 0 0 0 0 0 0 0 0 0 0 0 0
1 1 1 1 1 0 0 0 0 0 0 0 0 0 0 0 0 0 0 0 0 0 1 1 1 0 0 0 0 0 0 0 0 0 0 0 0 0 0 0 0 0 0
2 2 2 1 1 0 0 0 0 0 0 0 0 0 0 0 0 0 0 0 0 0 0 0 0 0 0 0 0 0 0 0 0 0 0 0 0 0 0 0 0 0 0
2 2 2 1 1 1 1 1 1 0 0 0 0 0 0 0 0 0 0 0 0 0 0 0 0 0 0 0 0 0 0 0 0 0 0 0 0 0 0 0 0 0 0
2 2 1 1 1 1 1 1 1 1 0 0 0 0 0 0 0 0 0 0 0 0 0 0 0 0 0 0 0 0 0 0 0 0 0 0 0 0 0 0 0 0 0
2 2 1 1 1 1 1 1 1 1 0 0 0 0 0 0 0 0 0 0 0 0 0 0 0 0 0 0 0 0 0 0 0 0 0 0 0 0 0 0 0 0 0
2 2 1 1 1 1 1 1 1 1 0 0 0 0 0 0 0 0 0 0 0 0 0 0 0 0 0 0 0 0 0 0 0 0 0 0 0 0 0 0 0 0 0
2 2 1 1 1 1 1 1 1 1 0 0 0 0 0 0 0 0 0 0 0 0 0 0 0 0 0 0 0 0 0 0 0 0 0 0 0 0 0 0 0 0 0
2 2 1 1 1 1 1 1 1 0 0 1 1 0 0 0 0 0 0 0 0 0 0 0 0 0 0 0 0 0 0 0 0 0 0 0 0 0 0 0 0 0 0
2 2 1 1 2 2 1 1 1 1 1 1 1 1 1 0 0 0 0 0 0 0 0 0 0 0 0 0 0 0 0 0 0 0 0 0 0 0 1 1 1 1 0
3 2 2 2 2 2 1 1 1 1 1 1 1 1 1 1 1 0 0 0 0 0 0 0 0 0 0 0 0 0 0 0 0 0 0 0 0 0 0 1 1 1 1
3 3 2 2 2 2 2 1 1 1 1 1 1 1 1 1 1 1 0 0 0 0 0 0 0 0 0 0 0 0 0 0 0 0 0 0 0 0 0 1 1 1 1
3 3 3 3 3 2 2 2 1 1 1 1 1 1 1 1 1 1 1 0 0 0 0 0 0 0 0 0 0 0 0 0 0 0 0 0 0 0 0 0 1 1 1
3 3 3 3 3 3 2 2 1 1 1 1 1 1 1 1 1 1 1 1 1 0 0 0 0 0 0 0 0 0 0 0 0 0 0 0 0 0 0 0 0 1 1
4 3 3 3 3 2 2 2 1 1 1 1 1 1 1 1 1 2 1 1 1 1 0 0 0 0 0 0 0 0 0 0 0 0 0 0 0 0 0 0 1 1 1
4 4 3 3 2 2 2 2 1 1 2 2 1 1 1 1 2 2 1 1 1 1 1 0 0 0 0 0 0 0 0 0 0 0 0 0 0 0 1 1 1 1 1
4 4 4 3 3 2 2 2 2 2 2 2 2 2 1 1 2 1 1 1 1 1 1 1 1 1 1 0 0 0 0 0 0 0 0 0 0 0 1 1 1 1 1
4 4 3 3 3 3 2 2 2 2 2 2 2 2 2 2 2 2 1 1 1 1 1 1 1 1 1 1 1 1 0 0 0 0 0 0 0 0 0 1 1 1 1
4 3 3 3 3 3 3 2 2 2 2 2 2 2 2 2 2 2 1 1 1 1 1 1 1 1 1 1 1 1 1 0 0 0 0 0 0 0 0 1 1 1 1
Wind_Speed
6 8 15 17 17 17 17 17 17 17 18 18 18 18 18 18 18 17 17 17 17 17 17 17 17 17 18 18 18 18 18 18 18 18 18 18 17 17 17 17 16 12 17
11 11 16 17 17 17 17 17 17 16 17 17 17 17 17 17 17 17 17 17 17 17 17 17 17 17 17 17 17 18 18 17 17 18 17 16 17 16 16 16 15 11 16
14 11 14 17 18 17 17 16 16 16 16 17 17 17 17 17 17 17 17 17 17 16 16 16 16 16 16 16 16 16 16 16 17 17 15 8 11 16 16 16 16 16 15
14 10 13 18 18 17 17 16 16 16 16 16 16 16 16 16 16 16 16 16 16 16 16 16 16 15 15 15 14 14 14 15 16 15 8 6 8 15 15 16 15 15 15
12 10 14 19 18 18 17 16 15 16 16 16 16 16 16 16 16 16 15 15 15 15 15 15 14 14 14 13 12 11 12 14 15 12 7 6 6 13 15 15 14 14 14
11 9 14 19 18 18 17 16 16 16 16 15 15 15 15 15 15 15 15 15 14 14 14 13 13 12 12 11 10 10 12 14 12 7 6 6 5 12 14 14 14 14 14
11 9 13 19 18 18 17 16 16 15 15 15 15 15 15 15 15 15 15 14 14 13 13 12 12 11 10 10 10 10 12 14 9 7 6 5 6 11 13 14 13 13 13
13 10 12 18 18 17 17 16 15 15 15 14 14 14 14 14 14 14 14 14 13 13 12 11 10 10 9 9 9 10 12 13 10 9 6 5 9 11 13 13 13 13 13
13 11 9 10 13 17 17 16 15 15 15 14 14 14 14 14 14 13 13 13 13 12 11 10 9 9 8 8 8 9 11 13 8 5 8 5 10 12 13 12 12 12 12
11 10 8 7 7 8 9 15 16 15 15 14 14 14 14 14 13 13 11 11 12 11 10 9 8 7 7 6 7 9 12 11 6 6 4 6 12 12 12 12 11 11 11
11 8 8 8 7 7 7 12 12 14 14 13 11 14 11 6 6 7 10 11 11 10 9 8 7 5 5 4 6 9 9 4 6 4 4 9 12 12 12 11 11 10 10
14 11 9 9 9 8 8 6 5 6 6 5 4 6 4 4 4 6 9 11 10 9 7 6 5 3 2 2 3 6 4 5 5 4 5 12 12 12 11 11 10 10 10
15 14 11 11 10 8 6 6 3 3 4 4 5 5 4 3 3 3 2 4 4 5 2 2 1 0 0 1 2 3 4 4 3 4 6 12 11 12 11 10 10 9 9
16 14 13 12 10 8 7 6 5 4 4 4 5 6 4 3 3 3 2 2 2 1 1 1 0 1 1 1 2 5 5 4 3 3 5 12 11 11 11 11 10 9 9
15 15 14 12 11 9 8 6 7 5 5 5 5 5 6 5 4 4 3 2 2 2 2 2 2 2 1 1 3 6 5 6 6 4 4 12 11 10 11 11 10 10 9
16 16 14 13 12 10 8 6 6 6 5 5 5 6 7 5 5 4 4 3 3 3 3 3 3 2 1 1 3 5 6 6 5 5 4 7 11 10 10 11 11 10 10
16 15 13 13 12 12 10 8 7 6 6 5 5 6 6 6 6 5 4 4 3 3 3 2 2 1 1 1 3 4 5 6 6 6 5 4 5 9 11 11 11 11 11
14 14 14 13 12 11 9 7 6 6 6 5 5 5 6 7 7 5 4 4 4 3 3 3 2 2 1 1 1 2 3 4 6 6 5 5 4 5 8 12 11 11 11
14 14 12 11 12 10 9 6 6 6 6 5 5 5 6 7 7 5 4 3 4 3 3 3 2 2 2 1 1 2 2 3 5 6 6 6 6 5 5 8 11 11 13
13 13 12 11 11 9 7 5 4 5 5 5 5 6 7 6 7 5 4 4 4 3 3 2 3 2 2 2 1 1 1 2 3 4 6 6 6 7 6 6 6 8 13
12 13 12 12 10 9 6 6 5 5 5 5 5 7 8 7 7 6 4 4 4 4 4 4 3 3 1 1 2 1 2 1 2 3 4 4 6 7 6 7 6 5 5
14 14 13 12 11 10 7 5 4 4 4 4 5 6 7 7 7 7 5 5 5 4 4 4 3 3 1 2 3 2 1 3 3 2 3 4 5 5 6 9 7 7 5
15 15 13 12 11 10 8 5 4 3 2 2 4 4 6 7 7 6 7 6 5 5 5 5 5 5 3 2 2 4 3 3 2 2 3 3 4 4 5 5 8 8 8
14 13 12 12 11 10 9 8 8 6 6 6 5 5 6 7 7 7 7 7 6 5 5 5 5 4 4 3 1 1 3 4 3 2 3 2 4 5 5 5 6 7 8
13 12 11 10 10 9 9 9 9 6 5 3 4 5 6 6 6 7 7 6 6 5 6 6 5 5 4 4 3 2 1 1 2 2 2 3 2 3 4 5 4 5 7
11 11 11 11 10 10 10 9 9 9 7 6 6 6 6 4 5 7 7 7 6 5 6 6 5 6 5 5 4 3 3 3 3 3 3 3 3 3 3 4 4 5 5
Wind_Direction
139 140 132 126 120 114 110 106 103 101 102 102 103 103 104 105 106 107 108 108 107 106 105 103 102 102 103 104 106 107 107 107 106 107 108 109 108 107 106 105 103 102 105
142 141 134 129 124 119 115 111 108 106 105 106 106 106 106 107 108 109 109 109 108 107 106 105 104 103 104 106 108 109 108 107 107 106 105 106 107 107 107 107 106 108 108
135 137 135 132 127 124 121 117 114 111 109 109 109 108 109 110 111 112 111 111 110 109 108 107 106 106 107 107 109 110 109 107 105 102 99 95 103 107 107 108 108 107 107
134 135 136 133 130 127 125 122 118 116 114 112 113 112 111 112 113 112 112 113 112 111 110 110 110 110 109 109 109 110 111 111 109 105 95 94 104 109 109 109 109 110 110
131 133 140 136 133 131 128 125 122 119 119 118 116 115 115 115 115 114 115 114 114 113 113 112 112 113 111 110 109 110 111 111 110 102 93 87 96 112 112 111 111 112 112
130 134 141 138 136 134 131 129 127 124 123 122 120 119 119 118 117 117 116 116 115 115 115 114 115 114 110 107 106 107 112 113 106 101 97 95 100 114 115 115 113 113 113
133 134 139 139 139 137 134 133 131 129 127 125 123 122 122 121 120 119 119 119 118 118 118 118 116 113 109 104 102 104 115 118 112 107 102 100 110 115 116 115 115 115 115
137 136 140 142 141 140 138 137 135 132 130 129 128 126 125 124 122 122 122 122 121 121 122 121 119 115 107 102 104 109 117 122 120 117 109 108 118 117 118 118 118 118 118
139 138 138 143 144 144 142 140 139 137 135 134 132 132 130 128 127 126 126 126 126 126 126 125 124 120 112 103 105 113 118 125 121 126 125 119 124 124 122 122 122 121 122
140 141 138 138 139 141 144 145 144 141 140 139 137 137 135 134 131 130 128 130 130 131 133 132 129 124 113 101 103 116 121 123 121 121 122 133 131 130 128 128 127 125 124
146 147 145 143 141 140 145 151 147 146 146 143 142 142 135 124 125 130 136 137 136 137 139 139 136 132 115 96 105 118 119 122 125 125 131 140 138 135 134 134 134 132 131
157 159 159 155 153 154 155 142 142 144 143 138 138 134 127 129 139 141 147 144 144 144 146 147 147 141 107 80 94 110 116 128 127 136 146 146 144 142 139 138 140 140 138
162 164 166 164 164 164 150 151 150 143 142 145 149 145 141 137 138 129 136 142 145 148 138 147 154 281 173 139 114 128 135 134 140 148 155 154 151 150 149 147 146 148 147
165 169 169 170 169 167 157 160 159 157 160 163 168 162 151 144 142 145 147 148 150 143 155 156 222 268 275 229 145 140 138 140 144 145 160 159 159 158 157 157 158 158 157
169 171 173 173 171 166 162 168 168 171 173 173 171 170 162 156 160 164 166 169 176 171 173 181 212 242 244 182 144 143 143 146 152 155 160 167 167 167 167 168 169 170 169
172 172 173 172 170 167 170 172 168 174 175 173 174 175 168 164 167 168 172 178 189 189 183 180 188 187 182 150 143 149 148 147 156 159 162 173 177 178 179 179 180 181 182
172 170 171 171 169 169 173 175 169 174 174 175 175 174 169 166 169 170 171 180 193 186 174 164 167 146 144 138 140 152 153 157 164 169 171 175 182 188 189 190 191 192 193
167 168 171 173 169 168 168 168 163 168 169 174 171 168 168 167 167 166 168 180 180 164 157 156 150 136 133 138 148 160 161 165 171 177 179 184 186 192 199 201 201 201 203
167 168 169 166 167 167 164 160 156 158 168 175 171 168 169 170 166 162 171 178 169 161 162 173 154 148 152 162 175 167 172 176 180 184 190 195 198 198 198 208 208 209 212
167 168 168 165 167 162 155 148 146 151 166 173 176 176 171 172 168 163 171 177 166 156 164 166 155 149 153 164 165 150 202 200 190 191 198 198 203 206 204 207 209 216 219
166 169 171 168 171 165 161 161 163 172 175 178 185 181 174 174 169 166 172 170 167 169 176 169 151 150 160 136 94 22 340 289 217 206 204 199 206 209 204 208 210 211 220
173 174 174 174 175 175 172 166 167 165 174 180 185 185 181 175 172 174 170 174 173 169 173 170 153 149 176 156 140 116 355 334 312 234 211 206 210 208 210 213 214 212 215
178 180 180 180 177 176 167 152 144 133 137 166 183 189 194 182 179 179 176 174 176 174 180 182 169 161 175 198 164 149 157 216 275 298 243 218 208 209 215 212 214 215 213
183 180 179 179 177 176 169 169 171 177 186 194 186 185 189 189 183 183 179 176 181 182 183 189 182 169 160 183 205 197 177 164 167 272 303 261 226 219 217 221 220 217 213
179 178 177 174 178 177 177 180 182 189 192 181 174 181 190 195 191 187 185 183 186 188 192 192 182 178 173 177 183 184 181 173 163 163 245 283 284 244 221 220 221 218 215
174 176 176 177 183 182 183 187 189 190 188 182 185 189 195 196 196 195 194 191 191 192 195 195 190 186 189 187 187 183 176 179 194 181 206 239 254 264 239 226 224 221 215